Other Public Products
Issued by NWS Grand Forks, ND

Home | Current Version | Previous Version | Graphics & Text | Print | Product List | Glossary On
Versions: 1 2 3 4 5 6 7 8 9 10 11 12 13 14 15 16 17 18 19 20 21 22 23 24 25 26 27 28 29 30 31 32 33 34 35 36 37 38 39 40 41 42 43 44 45 46 47 48 49 50
578
FPUS83 KFGF 301510
OPUFGF
PRAIRIE TO PINES WEATHER ROUNDUP
NATIONAL WEATHER SERVICE EASTERN NORTH DAKOTA/GRAND FORKS ND
1000 AM CDT THU MAR 30 2017

 **SATELLITE DATA USED TO AUGMENT SKY COVER AT AUTOMATED STATIONS**
 *****  WEATHER ACROSS EASTERN NORTH DAKOTA  *****

CITY           SKY/WX    TMP DP  RH WIND       PRES   REMARKS
GRAND FORKS    FAIR      45  39  79 S15G22    29.92F
GRAND FORKS AF PTSUNNY   46  37  69 S20       29.91F
GRAND CITY NWS NOT AVBL
BUXTON         NOT AVBL
DEVILS LAKE    PTSUNNY   43  36  76 S15G25    29.86F
FARGO          FAIR      43  39  86 SE6       29.93F
WAHPETON ARPT  FAIR      43  36  75 SE9       29.93F
$$

 *****  WEATHER ACROSS CENTRAL AND WESTERN NORTH DAKOTA  *****

CITY           SKY/WX    TMP DP  RH WIND       PRES   REMARKS
JAMESTOWN      CLOUDY    38  36  92 S14       29.89S
BISMARCK       FAIR      42  35  76 S13       29.85S
MINOT          CLOUDY    47  36  65 S14       29.75S
MINOT AFB      NOT AVBL
GARRISON         N/A     42  34  73 S10       29.78S
WILLISTON      CLOUDY    48  37  65 CALM      29.71S
DICKINSON      CLOUDY    43  37  79 SE10      29.72S
HETTINGER      CLOUDY    41  35  79 SE13      29.76F
$$

 *****  OTHER OBSERVATIONS NORTHEAST NORTH DAKOTA  *****

CITY           SKY/WX    TMP DP  RH WIND       PRES   REMARKS
WALHALLA       NOT AVBL
LANGDON        CLOUDY    39  39 100 S17       29.85S
CAVALIER         N/A     41  37  87 S15       29.87F
GRAFTON        PTSUNNY   43  39  87 S14       29.92F
CANDO          NOT AVBL
FORT TOTTEN      N/A     42  39  89 S14       29.95S
ROLLA          FAIR      37  37 100 S15G22    29.81S
RUGBY          NOT AVBL
 ***** THE ABOVE OBSERVATIONS ARE NON NWS ARE NOT QUALITY
        CONTROLLED AND MAY MIS-REPORT RAIN FOR SNOW...
$$

 *****  OTHER OBSERVATIONS SOUTHEAST NORTH DAKOTA *****

CITY           SKY/WX    TMP DP  RH WIND       PRES   REMARKS
COOPERSTOWN    FAIR      43  39  87 S17       29.90S
VALLEY CITY    FAIR      41  41 100 S14G20    29.92F
OAKES          NOT AVBL
GWINNER        CLOUDY    37  37 100 MISG      29.91F
SHEYENNE NWR     N/A     38  38 100 CALM      29.95S
BUFFALO        NOT AVBL
WYNDMERE       NOT AVBL
 ***** THE ABOVE OBSERVATIONS ARE NON NWS ARE NOT QUALITY
       CONTROLLED AND MAY MIS-REPORT RAIN FOR SNOW...
$$

  *****  WEATHER ACROSS NORTHERN MINNESOTA  *****

CITY           SKY/WX    TMP DP  RH WIND       PRES   REMARKS
FLAG ISLAND    FAIR      34  30  86 S9        29.95F
WARROAD        FAIR      41  37  87 SW7       29.95F
ROSEAU         FAIR      41  36  81 S6        29.94F
HALLOCK        FAIR      41  37  87 S15       29.91S
THF RVR FALLS  FOG       36  35  96 S8        29.95F VSB 1/2
HALSTAD          N/A     37  36  95 SE10        N/A
FOSSTON        FOG       36  36 100 CALM      29.96F VSB 1/4
BAUDETTE       FAIR      39  32  76 SE5       29.96F
WASKISH        FAIR      43  34  70 SE3       29.97F
CROOKSTON      FAIR      41  37  87 S12       29.95S
$$
  *****  WEATHER ACROSS CENTRAL AND WEST MINNESOTA  *****

CITY           SKY/WX    TMP DP  RH WIND       PRES   REMARKS
BEMIDJI        FOG       32  32 100 CALM      29.96S VSB 1/4
PARK RAPIDS    FAIR      37  31  78 VRB3      29.93F
WADENA         FAIR      39  34  81 E7        29.93S
DETROIT LAKES  CLOUDY    37  37 100 E5        29.95S FOG
MOORHEAD       FAIR      39  37  93 CALM      29.94F
FERGUS FALLS   FAIR      43  36  75 SE8       29.96S
ELBOW LAKE     FAIR      43  35  74 SE14      29.92S
MORRIS MN      FAIR      43  37  81 E21       29.90F
STAPLES        FAIR      41  32  70 E8        29.94S
WHEATON        FAIR      45  36  70 E14       29.92F
$$
  *****  WEATHER ELSEWHERE ACROSS MINNESOTA  *****

CITY           SKY/WX    TMP DP  RH WIND       PRES   REMARKS
DULUTH         FAIR      38  31  76 E12       29.99F
INTRNTL FALLS  FAIR      37  28  70 CALM      29.99F
ELY            FAIR      39  28  65 SE5       30.01S
CLOQUET        CLOUDY    34  30  86 E10       30.00S
BRAINERD       FAIR      35  32  88 NE6       29.96F
HIBBING        FAIR      35  30  82 E5        30.00S
ALEXANDRIA     FAIR      42  33  70 E16       29.92F
SAINT CLOUD    CLOUDY    38  31  76 E10G17    29.93F
MINNEAPOLIS    CLOUDY    40  34  79 NE14      29.91S
$$

  *****  WEATHER ACROSS SOUTH DAKOTA  *****

CITY           SKY/WX    TMP DP  RH WIND       PRES   REMARKS
SIOUX FALLS    CLOUDY    40  38  93 E14       29.84F
BROOKINGS      CLOUDY    38  35  89 E15G22    29.85F
WATERTOWN      CLOUDY    38  35  89 E8        29.87F
HURON          CLOUDY    41  36  82 E10       29.88S
SISSETON         N/A     42  38  85 SE12      29.90F
ABERDEEN       CLOUDY    39  34  82 E3        29.91S
MITCHELL       CLOUDY    42  35  76 E13       29.87S
PIERRE         CLOUDY    39  34  82 SE9       29.86S
MOBRIDGE       CLOUDY    39  33  79 S9        29.84F
RAPID CITY     FAIR      39  38  96 SE10      29.76S
$$

  *****  SOME WEATHER IN NEARBY STATES *****

CITY           SKY/WX    TMP DP  RH WIND       PRES   REMARKS
GLASGOW MT     FAIR      43  33  68 CALM      29.69R
GREAT FALLS MT FAIR      45  34  65 SW8       29.72R
CHEYENNE WY    PTSUNNY   47  31  53 W10       29.80F
SCOTTSBLUFF NE FAIR      38  34  85 CALM      29.78S
OMAHA NE       CLOUDY    43  37  79 N17       29.71F
DES MOINES IA  DRIZZLE   43  41  93 NE14      29.68F FOG
DAVENPORT IA   CLOUDY    44  42  93 E18G32    29.62F
CHICAGO IL     LGT RAIN  43  39  86 E17       29.75F
EAU CLAIRE WI  CLOUDY    38  34  85 E17G24    29.92F
LA CROSSE WI   CLOUDY    40  36  86 E13G20    29.86F
$$

  *****  SOME NATIONAL WEATHER *****

CITY           SKY/WX    TMP DP  RH WIND       PRES   REMARKS
LA GUARDIA NY  PTSUNNY   45  22  40 N14       30.26S
RALEIGH NC     CLOUDY    58  42  55 E9        30.18R
ATLANTA GA     PTSUNNY   70  54  56 SW8       30.01F
NEW ORLEANS LA TSTM      62  60  93 VRB3      29.93F FOG
OKLAHOMA CITY  CLOUDY    50  41  71 NW21      29.78R
ALBUQUERQUE NM FAIR      43  36  76 SE8       30.01F
SALT LAKE CITY PTSUNNY   52  34  50 S15G23    29.75F
LOS ANGELES CA FAIR      60  57  89 CALM      29.96R
BOISE ID       RAIN      38  38 100 NW23G31   29.73S FOG
SEATTLE WA     CLOUDY    43  40  89 S6        30.11R
$$

*** WEATHER ACROSS MANITOBA...SASKATCHEWAN AND ONTARIO ***
                ***ONTARIO***

CITY           SKY/WX    TMP DP  RH WIND       PRES   REMARKS
GERALDTON      MOSUNNY   37  21  52 S9G17     30.14F
THUNDER BAY    PTSUNNY   37  30  75 E14       30.10F
SIOUX LOOKOUT  PTSUNNY   39  25  56 S8        29.99F
TORONTO        CLOUDY    37  23  56 E16       30.22R
BIG TROUT LK   LGT RAIN  34  28  80 S13       29.92F WCI  25
PICKLE LAKE    CLOUDY    36  23  60 S15       29.99F
DRYDEN         SUNNY     37  28  70 S8        29.98F
KENORA         PTSUNNY   37  32  81 S10       29.95F
$$
                *** MANITOBA***

CITY           SKY/WX    TMP DP  RH WIND       PRES   REMARKS
BRANDON        PTSUNNY   37  36  93 SE2       29.78S
DAUPHIN        FOG       32  30  93 N3        29.82R VSB 1/8
ISLAND LAKE    NOT AVBL
PILOT MOUND      N/A     37  36  93 S16         N/A
THE PAS        FOG       32  32 100 N3        29.84R VSB 3/8
THOMPSON       CLOUDY    32  30  93 NE7       29.87S
WINNIPEG       PTSUNNY   43  37  81 S21       29.86S
LYNN LAKE      CLOUDY    32  23  69 E5        29.91R
CHURCHILL      PTSUNNY   12  10  92 E7        30.05S WCI   2
GILLAM         CLOUDY    28  23  80 N9        29.90S WCI  20
$$
                ***SASKATCHEWAN***

CITY           SKY/WX    TMP DP  RH WIND       PRES   REMARKS
ESTEVAN        PTSUNNY   43  36  75 E5        29.73F
KINDERSLEY     MOSUNNY   37  34  87 E17       29.69R
LLOYDMINSTER   FOG       30  30 100 E13       29.78R VSB 1   WCI  20
PRINCE ALBERT  CLOUDY    34  32  93 NE7       29.84R
REGINA         PTSUNNY   41  34  75 E8        29.71F
YORKTON        FOG       30  30 100 N5        29.78S V



USA.gov is the U.S. government's official web portal to all federal, state and local government web resources and services.